#timestamp,LO_Frequency,Hit,StdDev 
1584626415.0,286047001.9,N
1584626415.9,286047001.9,N
1584626435.8,286047011.9,Y
1584626455.6,286046998.2,P
1584626475.5,286047000.7,N
1584626495.3,286046999.1,N
1584626515.1,286046995.8,Y
1584626535.9,286046996.6,P
1584626555.7,286047000.3,N
1584626575.6,286046998.4,N
1584626595.4,286046999.4,N
1584626615.2,286046999.4,N
1584626635.1,286047000.6,N
1584626636.0,286047000.6,N
1584626655.8,286046999.9,N
1584626675.6,286046999.8,N
1584626695.5,286047002.8,N
1584626715.3,286046999.9,N
1584626735.2,286046999.9,N
1584626755.0,286047002.0,N
1584626755.9,286047002.0,N
1584626775.7,286047000.1,N
1584626795.6,286047001.0,N
1584626815.4,286047000.1,N
1584626835.3,286047000.1,N
1584626855.1,286047002.0,N
1584626856.0,286047002.0,N
1584626875.8,286047000.6,N
1584626895.7,286047002.2,N
1584626915.5,286047001.9,N
1584626935.4,286047001.7,N
1584626955.2,286047001.7,N
1584626975.0,286047001.6,N
1584626975.9,286047001.6,N
1584626995.8,286047000.2,N
1584627015.6,286047000.3,N
1584627035.4,286046999.9,N
1584627055.3,286047001.3,N
1584627075.1,286047004.4,Y
1584627095.9,286046999.0,P
1584627115.7,286046998.9,N
1584627135.5,286046999.3,N
1584627155.4,286046996.0,Y
1584627175.2,286046996.2,P
1584627195.1,286046996.1,N
1584627196.0,286046996.1,N
1584627215.8,286046995.8,N
1584627235.6,286046996.0,N
1584627255.5,286046994.1,Y
1584627275.3,286046997.3,P
1584627295.1,286046997.4,P
1584627315.9,286046997.5,P
1584627335.7,286046996.7,Y
1584627355.6,286046999.3,P
1584627375.4,286047000.7,N
1584627395.2,286047000.5,N
1584627415.1,286047002.0,N
1584627416.0,286047002.0,N
1584627435.8,286047000.3,N
1584627455.7,286046999.9,N
1584627475.5,286047000.6,N
1584627495.3,286047001.1,N
1584627515.2,286046998.3,N
1584627535.0,286046996.6,N
1584627535.9,286046996.6,N
1584627555.8,286046999.3,N
1584627575.6,286046998.7,N
1584627595.4,286046998.2,N
1584627615.3,286046999.4,N
1584627635.1,286046998.7,N
1584627655.8,286046996.8,N
1584627675.7,286046997.6,N
1584627695.5,286046995.3,N
1584627715.4,286046998.0,N
1584627735.2,286046995.1,N
1584627755.0,286046995.9,N
1584627755.9,286046995.9,N
1584627775.8,286046993.3,Y
1584627795.6,286046996.0,P
1584627815.5,286046995.6,P
1584627835.3,286046996.2,N
1584627855.1,286046994.0,Y
1584627875.9,286046999.2,P
1584627895.7,286046999.6,N
1584627915.6,286046998.3,N
1584627935.4,286046998.4,N
1584627955.2,286046998.3,N
1584627975.1,286046999.2,N
1584627976.0,286046999.2,N
1584627995.8,286046999.1,N
1584628015.7,286046999.6,N
1584628065.5,286046997.5,E
1584628075.5,286046997.3,N
1584628095.3,286046998.5,P
1584628115.1,286046998.1,P
1584628135.9,286046998.5,Y
1584628155.7,286047000.0,P
1584628175.6,286046999.8,N
1584628195.4,286047001.0,N
1584628215.2,286047001.2,N
1584628235.1,286046998.7,N
1584628236.0,286046998.7,N
1584628255.8,286046999.5,N
1584628275.7,286046999.5,N
1584628295.5,286046998.7,N
1584628315.3,286046997.2,N
1584628335.2,286046996.9,N
1584628355.0,286046996.5,N
1584628355.9,286046996.5,N
1584628375.7,286046998.6,N
1584628395.6,286047011.9,Y
1584628415.4,286047001.0,P
1584628435.3,286046998.3,N
1584628455.1,286047001.1,N
1584628475.8,286047000.6,N
1584628495.7,286047000.9,N
1584628515.5,286047000.9,N
1584628535.4,286047000.3,N
1584628555.2,286047001.9,N
1584628575.0,286047002.4,N
1584628575.9,286047002.4,N
1584628595.8,286047004.3,Y
1584628615.6,286047001.3,P
1584628635.5,286047002.0,P
1584628655.3,286047004.0,P
1584628675.1,286047003.3,N
1584628695.9,286047005.6,Y
1584628715.7,286047003.8,P
1584628735.6,286047005.9,P
1584628755.4,286047001.7,N
1584628775.2,286047001.4,N
1584628795.1,286046999.9,N
1584628796.0,286046999.9,N
1584628815.8,286047000.5,N
1584628835.6,286047000.3,N
1584628855.5,286047000.0,N
1584628875.3,286046998.1,N
1584628895.2,286047000.6,N
1584628915.9,286047001.2,N
1584628935.7,286046998.1,N
1584628955.6,286046998.5,N
1584628975.4,286046998.5,N
1584628995.2,286047002.5,N
1584629015.1,286047006.0,N
1584629016.0,286047006.0,N
1584629035.8,286047003.5,N
1584629055.7,286047004.4,N
1584629075.5,286047003.9,N
1584629095.3,286047004.1,N
1584629115.2,286047002.5,N
1584629135.0,286047002.1,N
1584629135.9,286047002.1,N
1584629155.8,286047003.0,N
1584629175.6,286047004.0,N
1584629195.4,286047003.5,N
1584629215.3,286047005.8,N
1584629235.1,286047005.7,N
1584629255.9,286047003.6,N
1584629275.7,286047003.4,N
1584629295.5,286047005.5,N
1584629315.4,286047003.0,N
1584629335.2,286047007.1,N
1584629355.0,286047007.3,N
1584629355.9,286047007.3,N
1584629375.8,286047007.0,N
1584629395.6,286047007.5,N
1584629415.5,286047005.2,N
1584629435.3,286047004.3,N
1584629455.1,286047004.1,N
1584629475.9,286047004.2,N
1584629495.7,286047004.3,N
1584629515.6,286047004.4,N
1584629535.4,286047003.4,N
1584629555.2,286047003.3,N
1584629575.1,286047004.7,Y
1584629576.0,286047004.7,P
1584629595.8,286047000.0,N
1584629615.6,286047002.2,N
1584629635.5,286047001.8,N
1584629655.3,286047001.8,N
1584629675.2,286046999.9,N
1584629695.9,286046998.2,N
1584629715.7,286047000.4,N
1584629735.6,286047002.8,N
1584629755.4,286047001.6,N
1584629775.3,286047001.0,N
1584629795.1,286047000.8,N
1584629796.0,286047000.8,N
1584629815.8,286046998.9,N
1584629835.7,286046998.5,N
1584629855.5,286047002.8,N
1584629875.3,286046999.7,N
1584629895.2,286047000.9,N
1584629915.0,286047002.6,N
1584629915.9,286047002.6,N
1584629935.8,286047002.3,N
1584629955.6,286047004.0,N
1584629975.4,286047004.2,N
1584629995.3,286047005.5,Y
